{"data":{"norad_id":63252,"intl_designator":"2025-052AU","name":"ARVAKER-1","alt_names":[],"object_type":"PAYLOAD","status":"ACTIVE","operator":null,"country":"NOR","launch_date":"2025-03-15","launch_site_code":"AFWTR","launch_vehicle":null,"mission":null,"orbit_class":"UNKNOWN","rcs_meters":null,"size_class":null,"mass_kg":null,"dimensions":null,"purposes":[],"wikipedia_slug":null,"has_3d_model":false,"image_url":null,"decayed_at":null,"tle_current":{"epoch":"2026-09-22T16:27:33.868224Z","epoch_age_seconds":119795,"freshness":"FRESH","line1":"1 63252U 25052AU  26265.68580866  .00000964  00000+0  93630-4 0  9993","line2":"2 63252  97.6721 154.8274 0000994 240.4852 119.6270 14.94867830 83175","mean_motion":14.9486783,"eccentricity":9.94e-5,"inclination_deg":97.6721,"raan_deg":154.8274,"arg_perigee_deg":240.4852,"mean_anomaly_deg":119.627,"bstar":9.363e-5,"rev_number":8317,"period_min":96.329586542778,"perigee_km":582.09110914189,"apogee_km":583.47494004278,"semimajor_km":6960.9200245923,"source":"CELESTRAK","updated_at":"2026-09-23T09:00:21.938217Z"}}}